, TX

(GMT )
Midland

Weather History for KMAF - November, 2013

Change the Weather History Date:

Thursday, November 14, 2013

  Actual Average Record
Temperature  
Mean Temperature 54 °F 53 °F  
Max Temperature 67 °F 67 °F 85 °F (1933)
Min Temperature 41 °F 40 °F 13 °F (1976)
Degree Days  
Heating Degree Days 11 12  
Month to date heating degree days 153 129  
Since 1 July heating degree days 232 238  
Growing Degree Days 4 (Base 50)    
Moisture  
Dew Point 36 °F    
Average Humidity 57    
Maximum Humidity 71    
Minimum Humidity 42    
Precipitation  
Precipitation 0.00 in 0.03 in 0.73 in (2004)
Month to date precipitation T 0.35  
Year to date precipitation 6.50 13.66  
Snow  
Snow 0.00 in - - ()
Month to date snowfall 0.0  
Since 1 July snowfall 0.0  
Since 1 September snowfall 0.0  
Snow Depth 0.00 in    
Sea Level Pressure  
Sea Level Pressure 29.99 in    
Wind  
Wind Speed 11 mph (South)    
Max Wind Speed 17 mph    
Max Gust Speed 23 mph    
Visibility 10 miles    
Events      
T = Trace of Precipitation, MM = Missing Value Source: NWS Daily Summary

Daily Weather History Graph

Daily Weather History Graph

Search for Another Location

Airport or City:

Trip Planner

Search our weather history database for the weather conditions in past years. The results will help you decide how hot, cold, wet, or windy it might be!

Date:

Astronomy

Nov. 14, 2013 Rise Set
Actual Time 7:16 AM CST 5:49 PM CST
Civil Twilight 6:50 AM CST 6:15 PM CST
Nautical Twilight 6:21 AM CST 6:44 PM CST
Astronomical Twilight 5:52 AM CST 7:13 PM CST
Moon 4:03 PM CST (11/14) 4:23 AM CST (11/14)
Length of Visible Light 11h 24m
Length of Day
10h 32m
Waxing Gibbous, 92% of the Moon is Illuminated
Nov 14
Waxing Gibbous
Nov 17
Full
Nov 25
Last Quarter
Dec 2
New
Dec 9
First Quarter

Hourly Weather History & Observations

Time (CST) Temp. Windchill Dew Point Humidity Pressure Visibility Wind Dir Wind Speed Gust Speed Precip Events Conditions
12:53 AM 42.1 °F 37.7 °F 23.0 °F 47% 30.20 in 10.0 mi South 6.9 mph - N/A   Clear
1:53 AM 41.0 °F 35.2 °F 23.0 °F 49% 30.17 in 10.0 mi South 9.2 mph - N/A   Clear
2:53 AM 41.0 °F 34.7 °F 24.1 °F 51% 30.14 in 10.0 mi South 10.4 mph - N/A   Clear
3:53 AM 42.1 °F 35.7 °F 24.1 °F 49% 30.11 in 10.0 mi SSE 11.5 mph - N/A   Overcast
4:53 AM 42.1 °F 35.7 °F 27.0 °F 55% 30.09 in 10.0 mi South 11.5 mph - N/A   Partly Cloudy
5:53 AM 42.1 °F 35.2 °F 30.9 °F 65% 30.07 in 10.0 mi South 12.7 mph - N/A   Clear
6:53 AM 42.1 °F 36.6 °F 30.9 °F 65% 30.07 in 10.0 mi South 9.2 mph - N/A   Partly Cloudy
7:53 AM 42.1 °F 34.5 °F 32.0 °F 67% 30.07 in 10.0 mi South 15.0 mph - N/A   Mostly Cloudy
8:53 AM 44.1 °F 37.7 °F 32.0 °F 63% 30.07 in 10.0 mi South 12.7 mph - N/A   Clear
9:53 AM 48.0 °F - 34.0 °F 58% 30.05 in 10.0 mi South 13.8 mph - N/A   Clear
10:53 AM 52.0 °F - 36.0 °F 54% 30.03 in 10.0 mi South 13.8 mph - N/A   Clear
11:53 AM 57.9 °F - 39.9 °F 51% 29.99 in 10.0 mi SW 13.8 mph - N/A   Clear
12:53 PM 62.1 °F - 41.0 °F 46% 29.94 in 10.0 mi SSW 10.4 mph - N/A   Partly Cloudy
1:53 PM 64.0 °F - 42.1 °F 45% 29.90 in 10.0 mi SSW 16.1 mph 20.7 mph N/A   Clear
2:53 PM 66.0 °F - 43.0 °F 43% 29.88 in 10.0 mi WSW 10.4 mph - N/A   Clear
3:53 PM 66.0 °F - 43.0 °F 43% 29.86 in 10.0 mi SSW 12.7 mph - N/A   Clear
4:53 PM 66.0 °F - 43.0 °F 43% 29.85 in 10.0 mi South 11.5 mph - N/A   Clear
5:53 PM 62.1 °F - 42.1 °F 48% 29.86 in 10.0 mi SSE 15.0 mph 20.7 mph N/A   Clear
6:53 PM 57.0 °F - 41.0 °F 55% 29.89 in 10.0 mi South 12.7 mph - N/A   Clear
7:53 PM 54.0 °F - 41.0 °F 62% 29.92 in 10.0 mi South 12.7 mph - N/A   Clear
8:53 PM 52.0 °F - 39.9 °F 63% 29.91 in 10.0 mi South 10.4 mph - N/A   Clear
9:53 PM 50.0 °F - 39.0 °F 66% 29.92 in 10.0 mi South 8.1 mph - N/A   Clear
10:53 PM 48.9 °F - 39.0 °F 69% 29.92 in 10.0 mi SSW 3.5 mph - N/A   Clear
11:53 PM 46.0 °F - 39.0 °F 76% 29.91 in 10.0 mi Calm Calm - N/A   Clear